This is the latest recevied weather packets stored in our database for station/object DL6JOE-10. If no packets are shown the sender has not sent any weather packets the latest 10 day(s).
| Time | Temp. | Humidity | Pressure | Rain* | Wind** | Luminosity | Snow |
|---|---|---|---|---|---|---|---|
| 1777116913 | 28.33° C | 25% | 962.9 hPa | - | - | - | - |
| 1777116013 | 27.78° C | 25% | 963.1 hPa | - | - | - | - |
| 1777115113 | 26.11° C | 27% | 963.3 hPa | - | - | - | - |
| 1777114213 | 26.11° C | 28% | 963.4 hPa | - | - | - | - |
| 1777113313 | 25.56° C | 28% | 963.6 hPa | - | - | - | - |
| 1777112413 | 25° C | 29% | 963.8 hPa | - | - | - | - |
| 1777111512 | 24.44° C | 29% | 963.7 hPa | - | - | - | - |
| 1777110612 | 23.89° C | 30% | 963.9 hPa | - | - | - | - |
| 1777109712 | 22.78° C | 31% | 964 hPa | - | - | - | - |
| 1777108812 | 21.67° C | 33% | 964.2 hPa | - | - | - | - |
| 1777107912 | 21.11° C | 33% | 964.2 hPa | - | - | - | - |
| 1777107012 | 20.56° C | 33% | 964.1 hPa | - | - | - | - |
| 1777106112 | 19.44° C | 34% | 964.1 hPa | - | - | - | - |
| 1777105212 | 18.33° C | 35% | 964.3 hPa | - | - | - | - |
| 1777104312 | 17.22° C | 37% | 964.3 hPa | - | - | - | - |
| 1777103412 | 16.11° C | 38% | 964.3 hPa | - | - | - | - |
| 1777102512 | 15° C | 38% | 964.3 hPa | - | - | - | - |
| 1777101612 | 13.89° C | 39% | 964.5 hPa | - | - | - | - |
| 1777100711 | 13.33° C | 40% | 964.7 hPa | - | - | - | - |
| 1777099811 | 12.22° C | 40% | 964.7 hPa | - | - | - | - |
| 1777098911 | 11.11° C | 40% | 964.8 hPa | - | - | - | - |
| 1777098011 | 10.56° C | 40% | 964.7 hPa | - | - | - | - |
| 1777097111 | 10.56° C | 40% | 964.7 hPa | - | - | - | - |
| 1777096211 | 9.44° C | 40% | 964.7 hPa | - | - | - | - |
| 1777095311 | 9.44° C | 39% | 964.7 hPa | - | - | - | - |
* Rain since midnight (hover to see other rain measurements)
** Current wind speed in m/s (hover to see current wind gust speed)